Tracking 19245 objects as of 17-Aug-2018
HD Live streaming from Space Station
objects crossing your sky now

FENGYUN 1C DEB

Track FENGYUN 1C DEB now!
10-day predictions


NORAD ID: 32353
Int'l Code: 1999-025CYW
Perigee: 834.2 km
Apogee: 1,049.4 km
Inclination: 99.0 °
Period: 103.7 minutes
Semi major axis: 7312 km
RCS: 0.0065 m2 (small)
Launch date: May 10, 1999
Source: People's Republic of China (PRC)
Launch site: Taiyaun Space Center, China (TSC)

Note: This is SATELLITE DEBRIS
aabbcc
Your satellite tracking list
Your tracking list is empty




NASA's NSSDC Master Catalog

Two Line Element Set (TLE):
1 32353U 99025CYW 18228.40911898  .00000322  00000-0  28062-3 0  9990
2 32353  98.9915  99.1274 0147146 315.6811  43.2642 13.88268819562300
Source of the keplerian elements: AFSPC